Tracking 28790 objects as of 19-Apr-2024
HD Live streaming from Space Station
objects crossing your sky now

OBJECT A

Track OBJECT A now!
10-day predictions


NORAD ID: 49003
Int'l Code: 2021-062A
Perigee: 522.1 km
Apogee: 554.8 km
Inclination: 97.6 °
Period: 95.3 minutes
Semi major axis: 6909 km
RCS: Unknown
Launch date: July 3, 2021
Source: People's Republic of China (PRC)
Launch site: Taiyaun Space Center, China (TSC)
Your satellite tracking list
Your tracking list is empty




NASA's NSSDC Master Catalog

Two Line Element Set (TLE):
1 49003U 21061A   24110.53341133  .00010174  00000-0  59880-3 0  9993
2 49003  97.5966 184.5412 0023684 329.9804  30.0067 15.11595145154220
Source of the keplerian elements: AFSPC